User: anonymous   Login
Location: Unspecified
(0.0000°N, 0.0000°E)
Time: 08:28:22
(UTC+01:00)
Language:

Cosmos 2237 Rocket - Orbit

View from above orbital plane
View from above orbital plane
View from above satellite
View from above satellite

Ground track
Ground track

The orbit data is extracted from the following two-line orbital elements,

1 22566U 93016B   17344.59064186 +.00000180 +00000-0 +11772-3 0  9998
2 22566 071.0092 056.6410 0012101 233.0557 126.9458 14.14956495276215
Epoch (UTC): 10 December 2017 14:10:31
Eccentricity: 0.0012101
inclination: 71.0092°
perigee height: 834 km
apogee height: 851 km
right ascension of ascending node: 56.6410°
argument of perigee: 233.0557°
revolutions per day: 14.14956495
mean anomaly at epoch: 126.9458°
orbit number at epoch: 27621

The dashed part of the orbit path shows where the satellite is in the earth's shadow,  

DLR